Location: Newark
(44.1667°N, 8.2500°E)
Time: 14:53:42
(UTC+00:00)

S-56A Canister/Altair - Pass Details

Date: 12 December 2019
Orbit: 634 x 2498 km, 38.9° (Epoch: 28 January)

Event Time Altitude Azimuth Distance (km) Brightness Sun altitude
Rises 12:56:57 0° 275° (W) 6,112 12.4 19.2°
Reaches altitude 10° 13:00:56 10° 273° (W) 5,155 12.1 18.9°
Maximum altitude 13:15:47 64° 198° (SSW) 2,535 10.9 17.8°
Drops below altitude 10° 13:27:56 10° 120° (ESE) 4,292 11.4 16.7°
Sets 13:30:57 0° 118° (ESE) 5,069 11.7 16.4°
